Location: Chena
(64.8152°N, 147.9227°W)
Time: 13:21:29
(UTC+00:00)

N. Korean satellite - Pass Details

Date: 22 January 2021
Orbit: 451 x 503 km, 97.2° (Epoch: 28 February)

Event Time Altitude Azimuth Distance (km) Brightness Sun altitude
Rises 13:51:25 0° 25° (NNE) 2,550 10.8 -31.4°
Reaches altitude 10° 13:55:09 10° 66° (ENE) 1,647 10.1 -31.0°
Maximum altitude 13:55:58 11° 79° (E) 1,604 10.0 -30.9°
Drops below altitude 10° 13:56:47 10° 93° (E) 1,638 10.0 -30.9°
Sets 14:00:26 0° 134° (SE) 2,492 10.5 -30.5°
